TimeEST,TemperatureF,Dew PointF,Humidity,Sea Level PressureIn,VisibilityMPH,Wind Direction,Wind SpeedMPH,Gust SpeedMPH,PrecipitationIn,Events,Conditions,WindDirDegrees,DateUTC
12:15 AM,11.8,6.1,78,30.34,10.0,Calm,Calm,-,N/A,,Clear,0,2013-01-23 05:15:00
12:35 AM,13.1,5.9,73,30.34,10.0,Calm,Calm,-,N/A,,Clear,0,2013-01-23 05:35:00
12:55 AM,11.3,7.5,85,30.34,10.0,Calm,Calm,-,N/A,,Clear,0,2013-01-23 05:55:00
1:15 AM,14.0,9.7,83,30.34,10.0,Calm,Calm,-,N/A,,Clear,0,2013-01-23 06:15:00
1:35 AM,12.0,8.4,85,30.35,10.0,Calm,Calm,-,N/A,,Clear,0,2013-01-23 06:35:00
1:55 AM,13.3,7.9,79,30.35,10.0,Calm,Calm,-,N/A,,Clear,0,2013-01-23 06:55:00
2:15 AM,10.9,7.0,84,30.35,10.0,Calm,Calm,-,N/A,,Clear,0,2013-01-23 07:15:00
2:35 AM,10.6,7.5,87,30.36,10.0,Calm,Calm,-,N/A,,Clear,0,2013-01-23 07:35:00
2:55 AM,11.7,8.1,85,30.36,10.0,Calm,Calm,-,N/A,,Clear,0,2013-01-23 07:55:00
3:15 AM,10.0,7.3,89,30.36,10.0,Calm,Calm,-,N/A,,Clear,0,2013-01-23 08:15:00
3:35 AM,9.3,7.2,91,30.36,10.0,Calm,Calm,-,N/A,,Clear,0,2013-01-23 08:35:00
3:55 AM,9.7,7.0,89,30.35,10.0,Calm,Calm,-,N/A,,Clear,0,2013-01-23 08:55:00
4:15 AM,8.6,6.4,91,30.35,10.0,Calm,Calm,-,N/A,,Clear,0,2013-01-23 09:15:00
4:35 AM,8.1,5.7,90,30.36,10.0,Calm,Calm,-,N/A,,Clear,0,2013-01-23 09:35:00
4:55 AM,9.0,6.1,88,30.36,10.0,Calm,Calm,-,N/A,,Clear,0,2013-01-23 09:55:00
5:15 AM,7.3,5.2,91,30.36,10.0,Calm,Calm,-,N/A,,Clear,0,2013-01-23 10:15:00
5:35 AM,7.3,5.0,90,30.37,10.0,Calm,Calm,-,N/A,,Clear,0,2013-01-23 10:35:00
5:55 AM,9.5,6.8,89,30.37,10.0,Calm,Calm,-,N/A,,Clear,0,2013-01-23 10:55:00
6:15 AM,7.2,4.8,90,30.37,10.0,Calm,Calm,-,N/A,,Clear,0,2013-01-23 11:15:00
6:35 AM,7.9,5.0,88,30.37,10.0,Calm,Calm,-,N/A,,Clear,0,2013-01-23 11:35:00
6:55 AM,6.4,4.3,91,30.38,10.0,Calm,Calm,-,N/A,,Clear,0,2013-01-23 11:55:00
7:15 AM,8.4,6.6,92,30.39,10.0,Calm,Calm,-,N/A,,Clear,0,2013-01-23 12:15:00
7:35 AM,8.2,6.3,92,30.39,10.0,Calm,Calm,-,N/A,,Clear,0,2013-01-23 12:35:00
7:55 AM,8.1,5.5,89,30.39,10.0,Calm,Calm,-,N/A,,Clear,0,2013-01-23 12:55:00
8:15 AM,10.0,8.1,92,30.39,10.0,Calm,Calm,-,N/A,,Clear,0,2013-01-23 13:15:00
8:35 AM,12.9,7.9,80,30.40,10.0,Calm,Calm,-,N/A,,Clear,0,2013-01-23 13:35:00
8:55 AM,15.1,9.0,77,30.40,10.0,Calm,Calm,-,N/A,,Clear,0,2013-01-23 13:55:00
9:15 AM,18.3,9.9,70,30.40,10.0,Calm,Calm,-,N/A,,Clear,0,2013-01-23 14:15:00
9:35 AM,19.8,7.0,58,30.40,10.0,Calm,Calm,-,N/A,,Clear,0,2013-01-23 14:35:00
9:55 AM,21.7,6.8,53,30.40,10.0,Calm,Calm,-,N/A,,Clear,0,2013-01-23 14:55:00
10:15 AM,22.5,4.6,46,30.40,10.0,SW,6.9,-,N/A,,Clear,220,2013-01-23 15:15:00
10:35 AM,24.4,3.6,41,30.39,10.0,West,8.1,-,N/A,,Clear,270,2013-01-23 15:35:00
10:55 AM,24.1,2.7,40,30.38,10.0,WSW,6.9,-,N/A,,Clear,250,2013-01-23 15:55:00
11:15 AM,25.2,0.1,34,30.38,10.0,West,9.2,-,N/A,,Clear,260,2013-01-23 16:15:00
11:35 AM,26.2,-0.4,32,30.36,10.0,WNW,8.1,-,N/A,,Clear,290,2013-01-23 16:35:00
11:55 AM,25.9,-0.2,32,30.34,10.0,WSW,5.8,-,N/A,,Clear,250,2013-01-23 16:55:00
12:15 PM,26.8,-0.2,31,30.32,10.0,West,10.4,16.1,N/A,,Clear,260,2013-01-23 17:15:00
12:35 PM,27.1,0.3,32,30.31,10.0,WNW,4.6,-,N/A,,Clear,300,2013-01-23 17:35:00
12:55 PM,27.5,-0.4,30,30.30,10.0,West,6.9,-,N/A,,Mostly Cloudy,260,2013-01-23 17:55:00
1:15 PM,28.2,-0.2,29,30.29,10.0,WSW,8.1,18.4,N/A,,Overcast,250,2013-01-23 18:15:00
1:35 PM,27.5,-0.4,30,30.28,10.0,WSW,6.9,-,N/A,,Overcast,250,2013-01-23 18:35:00
1:55 PM,28.0,-0.4,29,30.27,10.0,SW,6.9,-,N/A,,Overcast,220,2013-01-23 18:55:00
2:15 PM,28.9,-0.2,29,30.28,10.0,WSW,9.2,17.3,N/A,,Overcast,240,2013-01-23 19:15:00
2:35 PM,29.1,-0.0,29,30.27,10.0,West,9.2,-,N/A,,Overcast,280,2013-01-23 19:35:00
2:55 PM,28.6,-0.0,29,30.26,10.0,West,6.9,-,N/A,,Overcast,280,2013-01-23 19:55:00
3:15 PM,29.1,0.5,29,30.26,10.0,West,4.6,-,N/A,,Overcast,260,2013-01-23 20:15:00
3:35 PM,28.9,-0.2,29,30.26,10.0,West,10.4,17.3,N/A,,Overcast,260,2013-01-23 20:35:00
3:55 PM,28.8,-0.6,28,30.26,10.0,West,8.1,-,N/A,,Overcast,260,2013-01-23 20:55:00
4:15 PM,28.4,-0.6,29,30.25,10.0,Calm,Calm,-,N/A,,Overcast,0,2013-01-23 21:15:00
4:35 PM,28.9,-0.6,28,30.24,10.0,West,4.6,-,N/A,,Overcast,270,2013-01-23 21:35:00
4:55 PM,28.8,-0.6,28,30.24,10.0,Calm,Calm,-,N/A,,Mostly Cloudy,0,2013-01-23 21:55:00
5:15 PM,28.4,-1.5,28,30.24,10.0,Calm,Calm,-,N/A,,Mostly Cloudy,0,2013-01-23 22:15:00
5:35 PM,27.5,0.7,32,30.24,10.0,Calm,Calm,-,N/A,,Overcast,0,2013-01-23 22:35:00
5:55 PM,27.5,2.7,35,30.23,10.0,Calm,Calm,-,N/A,,Overcast,0,2013-01-23 22:55:00
6:15 PM,27.5,2.8,35,30.24,10.0,North,3.5,-,N/A,,Overcast,10,2013-01-23 23:15:00
6:35 PM,27.5,1.8,33,30.23,10.0,Calm,Calm,-,N/A,,Overcast,0,2013-01-23 23:35:00
6:55 PM,27.3,1.9,34,30.23,10.0,NNE,4.6,-,N/A,,Overcast,20,2013-01-23 23:55:00
7:15 PM,26.6,2.8,36,30.21,10.0,NE,5.8,-,N/A,,Overcast,50,2013-01-24 00:15:00
7:35 PM,26.6,3.7,38,30.21,10.0,NE,3.5,-,N/A,,Overcast,50,2013-01-24 00:35:00
7:55 PM,27.0,2.5,35,30.21,10.0,NE,5.8,-,N/A,,Overcast,40,2013-01-24 00:55:00
8:15 PM,26.6,2.8,36,30.22,10.0,NNE,3.5,-,N/A,,Overcast,20,2013-01-24 01:15:00
8:35 PM,26.6,2.1,35,30.21,10.0,NNE,4.6,-,N/A,,Overcast,20,2013-01-24 01:35:00
8:55 PM,26.6,1.6,34,30.22,10.0,Calm,Calm,-,N/A,,Overcast,0,2013-01-24 01:55:00
9:15 PM,26.8,1.9,34,30.21,10.0,NE,4.6,-,N/A,,Overcast,40,2013-01-24 02:15:00
9:35 PM,26.6,1.8,34,30.21,10.0,NNE,3.5,-,N/A,,Overcast,30,2013-01-24 02:35:00
9:55 PM,26.6,2.1,35,30.21,10.0,NNE,4.6,-,N/A,,Overcast,30,2013-01-24 02:55:00
10:15 PM,26.8,2.3,35,30.20,10.0,NNE,4.6,-,N/A,,Overcast,30,2013-01-24 03:15:00
10:35 PM,26.6,2.3,35,30.20,10.0,NE,4.6,-,N/A,,Overcast,40,2013-01-24 03:35:00
10:55 PM,26.6,2.8,36,30.20,10.0,NE,4.6,-,N/A,,Overcast,50,2013-01-24 03:55:00
11:15 PM,26.6,3.7,38,30.20,10.0,Calm,Calm,-,N/A,,Overcast,0,2013-01-24 04:15:00
11:35 PM,26.1,11.1,53,30.20,5.0,ENE,9.2,-,N/A,Snow,Light Snow,70,2013-01-24 04:35:00
11:55 PM,24.6,13.8,64,30.19,4.0,ENE,4.6,-,N/A,Snow,Light Snow,60,2013-01-24 04:55:00